Weather History for Newberry, MI

Change the Weather History Date:

Tuesday, November 8, 2011

  Actual Average Record
Temperature  
Mean Temperature 34 °F -  
Max Temperature 41 °F 42 °F 65 °F (1931)
Min Temperature 26 °F 28 °F 9 °F (1991)
Degree Days  
Heating Degree Days 32    
Moisture  
Dew Point 34 °F    
Average Humidity 93    
Maximum Humidity 100    
Minimum Humidity 87    
Precipitation  
Precipitation 0.00 in - - ()
Sea Level Pressure  
Sea Level Pressure 30.19 in    
Wind  
Wind Speed 1 mph (SSE)    
Max Wind Speed 5 mph    
Max Gust Speed -    
Visibility 10 miles    
Events Rain    
Averages and records for this station are not official NWS values.
T = Trace of Precipitation, MM = Missing Value Source: NWS Daily Summary

Daily Weather History Graph

Daily Weather History Graph

Search for Another Location

Airport:

Trip Planner

Search our weather history database for the weather conditions in past years. The results will help you decide how hot, cold, wet, or windy it might be!

Date:

Astronomy

Nov. 08, 2011 Rise Set
Actual Time 7:32 AM EST 5:17 PM EST
Civil Twilight 7:00 AM EST 5:49 PM EST
Nautical Twilight 6:24 AM EST 6:25 PM EST
Astronomical Twilight 5:49 AM EST 7:00 PM EST
Moon 3:59 PM EST (11/8) 5:27 AM EST (11/8)
Length of Visible Light 10h 48m
Length of Day
9h 44m
Waxing Gibbous, 96% of the Moon is Illuminated
Nov 8
Waxing Gibbous
Nov 10
Full
Nov 18
Last Quarter
Nov 25
New
Dec 2
First Quarter

Hourly Weather History & Observations

Time (EST) Temp. Windchill Dew Point Humidity Pressure Visibility Wind Dir Wind Speed Gust Speed Precip Events Conditions
12:15 AM 26.6 °F - 24.8 °F 93% 30.18 in 10.0 mi Calm Calm - N/A   Clear
12:35 AM 28.4 °F - 26.6 °F 93% 30.18 in 10.0 mi Calm Calm - N/A   Clear
12:54 AM 26.6 °F 21.2 °F 24.8 °F 93% 30.18 in 10.0 mi SSW 4.6 mph - N/A   Clear
1:15 AM 26.6 °F 22.6 °F 24.8 °F 93% 30.18 in 10.0 mi SW 3.5 mph - N/A   Clear
1:35 AM 30.2 °F 26.7 °F 28.4 °F 93% 30.18 in 10.0 mi WSW 3.5 mph - N/A   Clear
1:54 AM 30.2 °F - 28.4 °F 93% 30.18 in 10.0 mi Calm Calm - N/A   Clear
2:15 AM 28.4 °F 24.6 °F 26.6 °F 93% 30.19 in 10.0 mi SW 3.5 mph - N/A   Clear
2:34 AM 28.4 °F 24.6 °F 26.6 °F 93% 30.19 in 10.0 mi WSW 3.5 mph - N/A   Clear
2:54 AM 28.4 °F - 26.6 °F 93% 30.18 in 10.0 mi Calm Calm - N/A   Clear
3:14 AM 30.2 °F - 28.4 °F 93% 30.18 in 10.0 mi Calm Calm - N/A   Clear
3:34 AM 30.2 °F - 28.4 °F 93% 30.19 in 10.0 mi Calm Calm - N/A   Clear
4:14 AM 30.2 °F - 28.4 °F 93% 30.21 in 10.0 mi Calm Calm - N/A   Clear
4:35 AM 30.2 °F - 30.2 °F 100% 30.21 in 10.0 mi Calm Calm - N/A   Clear
4:55 AM 33.8 °F - 30.2 °F 87% 30.22 in 10.0 mi Calm Calm - N/A   Clear
5:14 AM 33.8 °F 30.8 °F 30.2 °F 87% 30.21 in 10.0 mi West 3.5 mph - N/A   Scattered Clouds
5:35 AM 33.8 °F - 32.0 °F 93% 30.21 in 10.0 mi Calm Calm - N/A   Mostly Cloudy
5:55 AM 33.8 °F - 32.0 °F 93% 30.20 in 10.0 mi Calm Calm - N/A   Overcast
6:14 AM 33.8 °F - 32.0 °F 93% 30.21 in 10.0 mi Calm Calm - N/A   Overcast
6:35 AM 33.8 °F - 32.0 °F 93% 30.22 in 10.0 mi Calm Calm - N/A   Overcast
6:55 AM 33.8 °F - 32.0 °F 93% 30.21 in 10.0 mi Calm Calm - N/A   Mostly Cloudy
7:14 AM 33.8 °F - 32.0 °F 93% 30.21 in 10.0 mi Calm Calm - N/A   Scattered Clouds
7:34 AM 33.8 °F - 32.0 °F 93% 30.22 in 10.0 mi Calm Calm - N/A   Scattered Clouds
7:54 AM 33.8 °F 30.8 °F 32.0 °F 93% 30.22 in 10.0 mi South 3.5 mph - N/A   Scattered Clouds
8:15 AM 33.8 °F - 33.8 °F 100% 30.22 in 10.0 mi Calm Calm - N/A   Clear
8:34 AM 35.6 °F - 33.8 °F 93% 30.22 in 10.0 mi Calm Calm - N/A   Scattered Clouds
9:14 AM 35.6 °F - 33.8 °F 93% 30.21 in 10.0 mi Calm Calm - N/A   Scattered Clouds
9:34 AM 37.4 °F - 35.6 °F 93% 30.22 in 10.0 mi Calm Calm - N/A   Mostly Cloudy
9:55 AM 37.4 °F - 33.8 °F 87% 30.22 in 10.0 mi Calm Calm - N/A   Mostly Cloudy
10:14 AM 37.4 °F - 35.6 °F 93% 30.21 in 10.0 mi Calm Calm - N/A   Mostly Cloudy
10:35 AM 37.4 °F - 35.6 °F 93% 30.21 in 10.0 mi Calm Calm - N/A   Overcast
10:55 AM 37.4 °F - 35.6 °F 93% 30.21 in 10.0 mi Calm Calm - N/A   Mostly Cloudy
11:14 AM 37.4 °F - 35.6 °F 93% 30.22 in 10.0 mi Calm Calm - N/A   Scattered Clouds
11:35 AM 39.2 °F - 35.6 °F 87% 30.22 in 10.0 mi Calm Calm - N/A   Mostly Cloudy
11:55 AM 39.2 °F - 35.6 °F 87% 30.22 in 10.0 mi Calm Calm - N/A   Overcast
12:14 PM 39.2 °F - 35.6 °F 87% 30.21 in 10.0 mi Calm Calm - N/A   Overcast
12:35 PM 39.2 °F - 35.6 °F 87% 30.20 in 10.0 mi Calm Calm - N/A Rain Light Rain
12:54 PM 39.2 °F - 37.4 °F 93% 30.19 in 10.0 mi Calm Calm - N/A Rain Light Rain
1:15 PM 39.2 °F 37.0 °F 37.4 °F 93% 30.19 in 10.0 mi East 3.5 mph - N/A Rain Light Rain
1:35 PM 39.2 °F - 37.4 °F 93% 30.18 in 10.0 mi Calm Calm - N/A Rain Light Rain
1:54 PM 41.0 °F 39.0 °F 37.4 °F 87% 30.17 in 10.0 mi East 3.5 mph - N/A Rain Light Rain
2:15 PM 39.2 °F 35.9 °F 37.4 °F 93% 30.16 in 10.0 mi East 4.6 mph - N/A Rain Rain
2:34 PM 39.2 °F 35.9 °F 37.4 °F 93% 30.16 in 10.0 mi East 4.6 mph - N/A Rain Light Rain
2:55 PM 39.2 °F - 37.4 °F 93% 30.16 in 10.0 mi Calm Calm - N/A   Scattered Clouds
3:15 PM 39.2 °F - 37.4 °F 93% 30.16 in 10.0 mi Calm Calm - N/A Rain Light Rain
3:34 PM 39.2 °F - 37.4 °F 93% 30.16 in 10.0 mi Calm Calm - N/A Rain Light Rain
3:55 PM 41.0 °F 39.0 °F 39.2 °F 93% 30.15 in 10.0 mi NE 3.5 mph - N/A Rain Light Rain
4:14 PM 39.2 °F 37.0 °F 37.4 °F 93% 30.16 in 10.0 mi NE 3.5 mph - N/A Rain Light Rain
4:35 PM 39.2 °F - 37.4 °F 93% 30.17 in 10.0 mi Calm Calm - N/A Rain Rain
5:15 PM 39.2 °F - 37.4 °F 93% 30.17 in 10.0 mi Calm Calm - N/A Rain Light Rain
5:34 PM 39.2 °F - 37.4 °F 93% 30.16 in 10.0 mi Calm Calm - N/A Rain Light Rain
5:55 PM 39.2 °F - 37.4 °F 93% 30.17 in 10.0 mi Calm Calm - N/A Rain Light Rain
6:15 PM 39.2 °F - 37.4 °F 93% 30.17 in 10.0 mi Calm Calm - N/A Rain Light Rain
6:34 PM 39.2 °F - 37.4 °F 93% 30.17 in 10.0 mi Calm Calm - N/A   Overcast
6:55 PM 39.2 °F - 37.4 °F 93% 30.19 in 10.0 mi Calm Calm - N/A   Overcast
7:15 PM 39.2 °F - 37.4 °F 93% 30.19 in 10.0 mi Calm Calm - N/A   Overcast
7:34 PM 39.2 °F - 37.4 °F 93% 30.18 in 10.0 mi Calm Calm - N/A Rain Light Rain
7:55 PM 37.4 °F - 37.4 °F 100% 30.17 in 10.0 mi Calm Calm - N/A   Overcast
8:14 PM 37.4 °F - 37.4 °F 100% 30.17 in 10.0 mi Calm Calm - N/A   Overcast
8:35 PM 37.4 °F - 37.4 °F 100% 30.16 in 7.0 mi Calm Calm - N/A   Overcast
8:55 PM 37.4 °F - 35.6 °F 93% 30.16 in 10.0 mi Calm Calm - N/A   Overcast
9:14 PM 37.4 °F - 35.6 °F 93% 30.15 in 10.0 mi Calm Calm - N/A   Overcast
9:34 PM 37.4 °F - 35.6 °F 93% 30.16 in 10.0 mi Calm Calm - N/A   Overcast
9:54 PM 37.4 °F - 35.6 °F 93% 30.16 in 7.0 mi Calm Calm - N/A   Overcast
10:15 PM 37.4 °F - 35.6 °F 93% 30.16 in 7.0 mi Calm Calm - N/A   Overcast
10:34 PM 37.4 °F - 35.6 °F 93% 30.16 in 10.0 mi Calm Calm - N/A   Overcast
10:55 PM 37.4 °F - 35.6 °F 93% 30.14 in 10.0 mi Calm Calm - N/A   Overcast
11:15 PM 37.4 °F - 35.6 °F 93% 30.14 in 10.0 mi Calm Calm - N/A   Overcast
11:34 PM 37.4 °F 34.9 °F 35.6 °F 93% 30.13 in 10.0 mi NNE 3.5 mph - N/A   Overcast
11:55 PM 37.4 °F 33.8 °F 35.6 °F 93% 30.12 in 10.0 mi NNE 4.6 mph - N/A   Scattered Clouds